Wind_Speed
13 13 14 14 14 15 16 16 17 17 17 18 18 18 19 19 19 19 19 19 19 19 19 19 19 20 20 20 20 20 21 21 21 22 22 23 24 24
16 16 17 17 18 18 19 20 20 20 20 21 21 21 21 22 22 22 22 22 22 22 22 22 22 22 22 22 22 22 23 23 23 24 24 24 25 25
19 20 20 21 21 21 22 23 24 24 24 24 24 25 25 25 25 26 26 26 26 25 26 25 25 25 25 25 25 25 25 25 25 26 26 26 27 27
23 23 23 24 25 25 25 26 27 27 28 28 28 28 28 29 29 29 29 30 29 29 29 29 29 29 29 28 28 28 28 28 28 28 28 29 29 29
26 26 26 27 27 27 28 29 29 30 31 31 31 31 32 32 32 32 33 33 33 33 32 32 32 33 32 32 32 32 32 32 32 31 32 32 32 32
29 29 29 30 31 31 31 31 32 32 33 34 34 34 34 35 35 35 35 35 35 36 36 36 36 36 36 36 36 35 35 35 35 35 35 35 35 35
31 32 32 32 33 34 34 34 35 35 36 36 37 37 38 38 38 38 38 38 39 39 39 39 39 39 39 39 39 39 38 38 38 38 38 38 38 37
34 35 36 35 36 36 37 38 39 39 39 39 40 40 40 41 41 42 42 42 42 42 42 42 43 43 42 42 42 42 41 41 41 41 41 41 41 40
36 37 38 39 40 40 41 42 42 43 43 42 42 42 43 43 43 43 43 43 43 44 45 45 46 45 45 45 45 44 44 43 43 43 43 43 43 43
39 40 40 41 41 43 44 44 44 44 45 44 44 44 45 45 45 45 44 45 45 46 47 47 47 48 48 48 47 47 47 47 47 47 46 46 45 45
39 41 42 42 42 43 45 45 45 45 47 47 47 46 47 46 46 47 48 48 48 48 49 50 49 50 50 50 50 49 49 49 49 49 49 48 48 48
40 41 42 42 43 45 45 45 45 46 47 47 47 48 49 49 49 49 49 50 50 50 51 51 51 52 52 52 52 52 51 51 52 52 51 51 51 50
42 42 43 43 44 45 46 46 46 47 48 49 49 50 51 51 51 52 53 53 53 53 53 54 53 54 54 54 53 53 54 55 55 55 54 53 53 53
44 44 44 45 45 46 47 48 48 49 51 52 53 53 53 53 53 53 54 55 55 55 55 56 56 56 57 56 55 55 56 56 56 56 56 56 55 55
45 45 46 47 47 47 48 49 50 51 52 52 53 54 55 55 56 56 57 57 57 58 58 57 57 57 58 58 57 58 57 57 58 58 57 56 56 55
46 47 47 47 48 49 50 51 52 53 53 54 55 55 55 56 57 58 58 58 58 57 58 58 57 57 57 57 58 57 57 57 58 58 56 55 55 55
47 48 48 49 49 50 50 51 52 52 53 53 54 55 56 57 57 58 58 58 58 58 57 57 57 57 56 56 55 54 54 54 55 56 56 56 56 56
48 49 50 50 50 51 52 53 53 53 54 54 55 55 56 57 57 58 58 57 56 56 56 56 56 55 54 53 53 53 53 53 54 55 55 55 54 54
49 50 51 52 52 53 53 54 54 55 55 55 55 55 55 55 55 55 55 54 54 54 53 53 53 51 51 50 51 52 52 52 53 53 53 53 52 51
51 52 53 54 54 55 55 55 55 55 55 54 53 53 52 52 52 51 51 50 50 49 49 48 48 48 48 48 48 48 49 50 49 49 49 48 47 46
53 54 54 55 55 55 55 55 54 53 52 51 50 49 48 48 47 46 45 45 44 43 43 43 44 44 44 44 44 43 44 44 44 43 42 41 41 40
54 54 54 54 53 52 51 50 50 49 48 46 45 44 43 42 41 40 39 39 39 39 39 39 40 40 40 41 40 39 38 38 38 36 35 35 35 34
52 51 51 50 49 48 47 46 45 44 43 42 41 40 39 38 38 37 38 38 38 37 37 37 37 38 38 37 36 35 34 34 33 32 32 31 30 30
Wind_Direction
262 266 269 273 275 278 281 284 286 288 289 289 289 289 288 288 287 286 285 285 287 288 288 288 287 287 288 288 288 287 286 284 282 280 279 278 277 275
265 268 271 274 277 278 280 282 283 284 285 286 286 286 287 286 286 285 284 284 285 286 286 286 286 286 286 286 285 285 285 285 284 282 281 280 278 277
267 270 272 274 276 278 279 280 281 282 283 283 283 284 284 285 285 284 284 284 284 284 285 285 285 284 284 284 283 283 282 283 282 282 281 280 279 278
268 271 273 275 277 277 278 279 279 281 281 281 281 281 282 283 284 284 284 283 282 281 281 282 283 283 283 283 282 282 281 281 281 281 280 280 278 277
268 271 273 274 276 277 278 279 280 280 280 281 281 281 282 283 283 283 283 282 281 280 280 280 281 281 281 281 281 281 280 279 279 278 279 279 278 277
268 271 273 273 275 277 278 280 281 281 281 281 281 282 282 282 282 282 281 280 280 280 279 279 280 280 279 279 280 279 278 278 277 277 277 277 277 276
269 271 273 275 275 277 278 279 280 280 280 280 280 281 282 282 281 281 281 280 280 280 279 279 280 280 280 280 280 279 278 277 277 277 276 276 275 275
271 273 274 276 277 278 278 278 279 280 281 280 280 281 281 281 282 281 280 280 280 280 280 279 279 279 279 280 279 279 278 277 277 277 276 275 275 274
274 275 276 276 278 278 278 278 279 279 279 279 279 280 280 281 281 280 280 280 280 280 279 279 280 280 280 280 279 279 278 277 277 276 276 275 274 274
275 276 278 279 279 279 280 280 279 279 279 279 279 280 280 280 280 279 279 279 279 279 280 280 280 280 280 281 280 279 277 276 275 275 276 275 275 274
278 278 278 279 280 282 281 280 280 279 278 279 279 279 280 279 279 279 279 279 279 279 279 279 280 280 280 280 279 278 277 277 276 276 275 275 275 275
279 280 281 281 281 281 281 280 279 279 279 278 278 279 280 281 280 280 280 280 281 281 280 279 280 280 279 279 278 278 277 277 277 276 275 274 274 274
282 282 283 283 283 283 283 281 280 280 280 280 280 280 280 280 280 281 281 281 281 282 281 281 280 280 280 279 278 278 278 278 277 276 276 275 275 274
283 284 284 283 283 283 282 282 281 280 281 281 281 280 280 281 281 282 282 282 281 282 282 281 280 280 280 280 279 278 279 279 278 277 276 276 275 274
284 284 283 284 283 283 282 282 282 281 281 282 282 281 281 280 280 281 282 283 283 283 282 282 281 280 280 280 279 279 278 278 277 277 277 276 275 273
284 284 284 284 284 283 283 283 282 282 281 282 282 281 281 281 281 281 282 282 283 283 283 282 282 282 282 281 281 281 280 279 278 277 276 275 274 273
285 285 284 285 285 285 285 284 284 283 283 283 283 282 282 282 282 283 283 283 283 283 283 282 282 282 282 282 283 282 281 280 279 278 277 275 274 273
285 286 286 286 286 286 286 286 286 286 285 285 285 284 284 284 283 283 283 283 283 283 283 282 283 283 282 282 283 283 282 282 281 280 278 276 275 273
287 287 287 288 288 288 289 289 288 288 287 287 287 286 285 285 284 284 283 283 282 282 282 282 282 283 283 283 283 284 284 283 282 280 279 277 276 274
288 288 289 289 289 289 289 290 289 289 288 288 288 287 287 286 285 284 283 283 283 282 282 282 282 283 283 283 284 285 285 285 283 281 279 277 276 273
290 290 290 289 289 290 290 290 290 289 288 288 288 287 286 286 286 284 283 283 283 283 283 283 284 284 284 284 285 286 285 285 284 282 280 278 276 273
291 291 291 290 290 290 290 289 289 289 288 287 286 286 286 285 285 284 283 282 283 285 285 285 284 285 287 288 288 287 285 285 284 282 280 279 276 274
293 293 293 292 292 291 290 289 289 288 287 285 285 285 285 285 285 284 284 284 285 286 286 286 287 288 288 289 289 287 285 284 282 281 280 280 278 274
Height
5881 5881 5881 5881 5880 5880 5879 5879 5879 5878 5877 5876 5875 5874 5873 5872 5871 5870 5869 5868 5867 5866 5864 5863 5862 5861 5860 5859 5858 5857 5856 5856 5855 5854 5854 5853 5853 5853
5877 5877 5877 5877 5876 5876 5875 5875 5874 5873 5872 5871 5870 5869 5868 5867 5866 5865 5864 5863 5862 5860 5859 5858 5857 5856 5855 5854 5853 5852 5851 5850 5849 5849 5848 5847 5847 5846
5873 5873 5872 5872 5871 5871 5870 5869 5869 5868 5867 5866 5865 5864 5862 5861 5860 5859 5857 5856 5856 5855 5853 5852 5851 5850 5849 5848 5847 5846 5845 5844 5843 5842 5841 5840 5840 5839
5867 5867 5867 5867 5866 5865 5864 5863 5862 5861 5860 5859 5858 5857 5856 5854 5853 5852 5850 5849 5848 5847 5846 5845 5844 5843 5841 5840 5839 5838 5837 5836 5836 5835 5834 5833 5832 5832
5861 5861 5861 5860 5859 5859 5858 5857 5855 5854 5853 5852 5851 5849 5848 5846 5845 5844 5842 5841 5839 5838 5837 5836 5835 5834 5833 5832 5831 5830 5829 5828 5827 5826 5825 5825 5824 5823
5854 5854 5853 5853 5852 5851 5850 5849 5848 5846 5845 5844 5842 5841 5839 5838 5836 5835 5833 5832 5830 5829 5828 5827 5826 5825 5823 5822 5821 5820 5819 5818 5817 5816 5816 5815 5814 5814
5847 5846 5846 5845 5844 5843 5842 5841 5839 5838 5836 5835 5833 5832 5830 5828 5827 5825 5823 5822 5820 5819 5817 5816 5815 5814 5813 5812 5811 5809 5808 5807 5806 5805 5805 5804 5804 5803
5839 5838 5837 5837 5835 5834 5833 5831 5830 5828 5827 5825 5823 5822 5820 5818 5816 5814 5813 5811 5810 5808 5806 5805 5803 5802 5801 5800 5799 5798 5796 5795 5794 5793 5793 5792 5792 5791
5830 5829 5827 5827 5826 5824 5822 5820 5819 5817 5816 5814 5813 5811 5809 5807 5805 5803 5801 5800 5798 5796 5794 5793 5791 5789 5788 5787 5786 5785 5783 5782 5781 5780 5780 5779 5779 5778
5820 5819 5817 5816 5814 5813 5811 5809 5807 5805 5804 5802 5801 5799 5797 5795 5793 5791 5789 5787 5786 5784 5781 5780 5778 5777 5775 5774 5772 5771 5770 5768 5767 5766 5766 5765 5765 5764
5810 5808 5807 5805 5803 5801 5798 5797 5795 5793 5791 5789 5788 5786 5784 5781 5779 5777 5776 5774 5772 5771 5768 5766 5764 5762 5761 5759 5758 5756 5755 5754 5753 5751 5751 5750 5749 5749
5799 5797 5795 5793 5791 5788 5786 5783 5782 5780 5777 5776 5774 5772 5770 5767 5765 5763 5761 5759 5757 5756 5753 5751 5749 5747 5746 5744 5742 5741 5740 5738 5737 5736 5735 5734 5733 5732
5788 5786 5783 5781 5778 5775 5773 5771 5769 5766 5764 5761 5759 5757 5755 5753 5750 5748 5746 5743 5741 5740 5738 5735 5733 5731 5729 5728 5727 5724 5722 5721 5720 5719 5718 5717 5716 5715
5776 5773 5771 5768 5765 5762 5760 5757 5755 5752 5749 5747 5744 5742 5740 5737 5735 5732 5730 5727 5725 5723 5721 5717 5716 5714 5712 5711 5710 5707 5705 5703 5701 5700 5699 5699 5698 5697
5763 5760 5757 5754 5752 5749 5746 5743 5740 5737 5734 5731 5729 5726 5724 5721 5719 5716 5713 5711 5708 5706 5703 5700 5698 5695 5693 5691 5690 5689 5687 5685 5682 5681 5680 5679 5678 5678
5750 5747 5744 5741 5738 5734 5731 5728 5724 5721 5718 5715 5713 5710 5707 5704 5701 5699 5696 5693 5691 5688 5685 5682 5679 5677 5675 5673 5671 5669 5667 5665 5663 5661 5660 5660 5659 5659
5737 5734 5730 5727 5723 5720 5716 5712 5708 5705 5702 5699 5696 5693 5690 5687 5684 5681 5678 5675 5672 5670 5667 5664 5661 5658 5657 5654 5652 5650 5647 5645 5644 5642 5641 5641 5641 5640
5723 5719 5716 5712 5708 5704 5700 5696 5692 5688 5685 5682 5678 5675 5672 5669 5666 5663 5660 5657 5654 5652 5649 5646 5644 5641 5639 5637 5634 5632 5630 5628 5626 5624 5622 5621 5622 5621
5708 5704 5700 5696 5692 5688 5684 5680 5675 5671 5668 5665 5661 5658 5654 5651 5648 5645 5642 5640 5637 5635 5632 5629 5627 5624 5622 5621 5619 5615 5612 5610 5608 5606 5604 5602 5603 5603
5693 5688 5684 5680 5676 5672 5668 5663 5659 5655 5651 5647 5644 5641 5637 5634 5631 5628 5626 5623 5621 5618 5616 5613 5611 5608 5606 5604 5603 5600 5596 5593 5590 5588 5587 5585 5585 5586
5676 5672 5668 5663 5659 5655 5651 5647 5642 5638 5635 5631 5628 5625 5622 5619 5616 5613 5611 5609 5606 5603 5601 5599 5596 5593 5590 5588 5587 5585 5581 5578 5575 5573 5571 5570 5570 5570
5660 5655 5651 5646 5642 5638 5634 5630 5627 5623 5619 5616 5613 5610 5607 5605 5602 5600 5597 5595 5593 5590 5588 5586 5583 5580 5577 5574 5572 5570 5568 5565 5562 5560 5559 5558 5557 5557
5643 5638 5634 5630 5626 5622 5618 5615 5611 5608 5605 5602 5599 5597 5594 5592 5589 5587 5585 5583 5581 5579 5576 5573 5571 5568 5565 5562 5559 5557 5555 5553 5551 5550 5549 5547 5547 5546